GFSNW_sfc_temp_024.txt.gz
Temp
58 58 59 59 58 56 62 73 66 76 81 67 69 59 60 54 59 63 59 59 56 54 54 52 53 53 52 54 54 48 52 44 38 46 56 57 52 48 48 34 33 35 30 32
58 58 58 58 57 55 66 70 69 78 78 61 58 58 55 58 57 55 57 54 55 56 53 47 52 53 52 53 51 46 48 43 33 42 46 52 48 50 49 45 38 31 26 31
58 58 58 58 57 57 63 70 63 69 71 69 62 58 56 51 56 55 57 54 56 53 52 54 49 51 53 52 52 52 49 42 38 31 37 44 40 44 46 42 31 32 33 37
58 58 57 58 57 57 64 66 57 60 58 60 61 61 59 53 51 56 57 52 52 49 46 50 49 51 52 54 52 50 47 37 42 44 44 43 41 41 42 39 39 32 36 38
58 58 57 57 57 56 68 62 62 64 59 62 61 53 56 55 52 54 52 50 52 51 46 48 44 47 47 46 51 48 48 35 40 35 42 42 39 42 42 42 43 42 43 41
58 58 57 56 56 60 66 68 66 61 50 59 59 55 55 53 54 53 55 53 50 48 50 51 51 51 50 49 45 43 42 37 34 27 40 38 30 41 44 44 46 44 35 42
58 58 58 57 56 55 64 61 62 60 54 57 56 55 55 53 53 51 54 53 49 52 56 54 53 50 49 49 48 48 41 39 35 28 33 20 41 49 48 43 45 46 45 45
58 57 57 57 56 55 61 61 59 57 55 59 55 54 54 53 51 50 52 54 56 56 50 44 41 43 43 47 49 47 47 39 30 25 27 34 40 46 43 40 38 46 43 45
57 57 57 57 56 55 62 59 60 59 54 55 60 54 55 52 51 49 51 55 56 52 46 42 29 33 40 37 41 50 48 45 35 31 21 18 39 47 52 46 29 46 46 44
58 57 57 57 56 56 56 58 59 57 53 58 58 54 52 56 54 50 51 50 48 51 43 37 34 35 43 32 34 35 37 36 30 30 27 33 46 48 50 28 31 46 47 45
57 57 57 57 57 56 55 58 61 54 52 56 58 59 54 52 51 47 48 47 46 44 38 37 38 35 39 36 40 36 32 29 29 31 26 23 49 47 36 43 47 48 45 44
57 57 57 57 57 56 55 56 62 60 51 53 59 59 61 59 58 51 50 49 49 49 42 42 40 35 36 34 28 44 31 39 32 33 32 47 50 48 50 50 46 45 44 45
57 57 57 56 56 56 55 54 57 55 51 52 52 51 59 61 60 61 46 50 54 51 52 44 41 34 39 31 35 39 44 47 37 37 42 45 48 51 52 50 46 46 46 46
57 57 57 56 56 56 55 52 55 53 50 42 50 60 54 61 60 59 57 54 54 52 50 42 37 33 43 36 39 37 42 43 39 38 43 46 48 49 47 45 46 46 46 46
57 57 56 55 54 54 53 52 54 56 48 41 46 54 58 58 58 56 56 53 50 46 42 38 35 41 39 40 39 35 43 40 36 34 45 43 43 47 47 44 44 44 44 44
57 56 55 55 54 54 52 47 55 56 54 43 35 53 51 52 53 53 52 51 49 47 40 37 40 45 38 30 30 43 48 50 48 43 48 45 45 46 47 45 45 45 44 43
56 55 54 54 54 52 47 46 51 56 54 43 37 39 50 52 50 49 48 50 46 44 37 35 38 41 41 33 29 42 46 48 50 50 46 40 44 42 47 45 44 44 44 44
55 55 54 53 53 52 47 52 52 55 47 46 35 36 43 50 43 42 48 43 40 38 38 38 37 40 38 30 38 44 47 48 46 45 46 45 46 45 43 44 42 39 38 39
55 54 52 49 46 43 48 53 53 53 46 35 34 31 34 47 44 43 42 42 33 41 33 36 38 34 30 37 41 44 47 41 42 45 45 44 41 40 40 39 38 36 36 38
53 49 43 39 46 52 52 46 42 41 41 40 35 42 36 41 39 37 37 37 34 32 36 41 34 33 43 45 48 48 45 45 45 40 38 38 36 36 37 37 38 38 38 38
47 42 40 46 52 46 42 36 36 36 33 37 38 40 38 43 36 36 41 35 36 29 36 34 33 33 41 47 48 48 47 44 44 43 41 40 39 38 36 37 38 39 38 38
47 44 45 43 40 37 33 33 36 34 33 39 36 37 43 39 44 39 37 33 35 27 40 33 28 38 44 45 46 46 46 43 43 42 40 41 40 39 38 38 38 38 39 38
44 41 37 35 34 29 29 27 31 32 38 41 39 35 36 38 40 37 34 29 30 39 31 30 35 41 44 45 45 44 43 43 40 39 41 41 40 40 40 38 39 38 37 38
35 32 28 32 29 32 37 38 42 44 44 41 40 35 36 38 34 36 29 34 35 27 25 29 38 42 44 44 44 43 42 40 38 38 40 39 38 38 39 38 38 38 36 38
32 32 29 30 41 45 47 50 50 49 46 42 37 36 36 32 31 34 33 29 24 28 29 36 42 45 45 42 43 42 40 39 37 39 39 38 38 38 37 38 39 38 38 36
33 32 32 39 41 42 48 47 44 46 43 41 40 34 31 31 32 29 27 26 25 31 37 43 45 44 43 42 43 42 41 38 37 39 39 39 37 36 36 38 38 36 37 35
31 32 38 42 47 46 47 48 44 47 40 35 36 29 30 36 30 28 32 29 36 40 43 44 44 43 43 43 43 42 40 38 40 40 39 38 39 39 37 34 36 37 37 35

GFSNW_sfc_temp_027.txt.gz
Temp
58 58 59 59 58 56 60 56 51 65 65 53 46 43 51 54 55 56 54 52 50 47 47 44 45 45 45 50 49 42 43 37 30 38 48 52 47 41 40 26 28 28 20 28
58 58 59 59 57 55 50 53 52 63 62 45 40 46 51 51 52 51 52 49 50 50 46 40 46 45 49 49 47 41 42 34 24 34 40 46 41 44 43 39 30 23 19 31
58 58 58 58 58 57 52 53 49 52 53 49 46 45 46 45 52 51 52 50 50 47 44 46 42 44 48 49 49 53 47 35 31 24 31 37 34 38 40 35 17 28 30 34
58 58 58 58 58 57 56 50 45 47 42 47 47 47 49 46 45 50 50 46 47 44 39 42 42 45 45 47 51 46 41 30 35 37 39 39 38 37 38 35 35 27 34 35
58 58 58 57 57 57 52 48 47 47 45 48 46 44 43 48 47 46 45 44 48 44 39 41 38 41 40 40 43 42 41 30 34 31 38 38 35 38 38 38 38 38 38 36
58 58 57 57 56 56 48 48 50 48 45 45 43 42 46 48 48 48 50 47 43 42 43 43 42 42 42 41 38 37 36 31 26 19 34 34 25 35 38 39 40 38 32 39
58 58 58 57 56 54 49 47 46 45 42 45 46 49 50 48 46 45 49 47 41 45 49 47 43 41 43 42 41 42 35 32 28 20 26 14 35 44 43 40 42 42 41 41
57 57 57 58 56 55 48 47 45 43 41 46 48 49 47 45 43 44 47 48 46 47 43 36 33 35 36 40 42 40 39 32 22 17 17 29 35 41 39 36 34 43 40 42
57 57 57 57 56 55 50 48 47 44 42 42 51 47 47 40 38 41 45 47 47 45 39 34 21 24 32 31 37 44 40 37 28 24 12 11 32 42 46 42 29 42 43 43
57 57 57 57 56 56 50 48 49 45 41 46 47 44 43 47 42 38 42 42 40 43 33 28 24 26 37 26 28 29 30 28 26 26 17 26 39 44 45 23 29 44 44 40
58 57 57 57 56 56 50 48 51 45 39 44 51 51 45 44 42 38 41 39 39 35 28 26 28 24 31 27 33 31 28 20 21 23 17 19 43 41 32 38 43 44 41 40
58 57 57 57 57 56 54 44 52 51 42 44 52 52 52 50 49 44 42 40 40 39 33 31 26 26 25 27 22 36 27 33 25 28 27 39 43 42 44 44 40 39 40 42
57 57 57 56 56 56 53 45 47 45 41 41 43 45 51 54 54 53 40 40 46 44 43 35 30 25 29 22 26 31 36 40 31 31 35 39 43 48 45 42 40 42 43 43
57 57 57 56 56 55 54 45 47 44 42 37 41 56 51 54 53 54 51 48 48 44 40 34 27 24 34 26 32 30 35 36 34 31 38 40 42 41 41 42 43 43 44 42
57 57 57 56 55 54 50 48 47 48 42 36 40 48 51 53 51 51 51 48 43 37 34 29 28 32 30 30 31 31 38 35 27 31 37 36 36 40 42 41 41 41 40 39
56 56 57 55 54 54 49 43 47 50 48 40 30 43 44 48 50 49 48 47 44 40 33 31 34 38 31 18 24 36 39 42 44 38 41 41 41 42 42 39 40 40 39 39
57 56 55 55 54 50 45 44 47 52 47 38 33 34 44 48 47 45 43 45 41 39 34 32 33 36 37 31 28 37 42 43 45 45 38 35 38 37 40 40 40 40 40 40
57 55 54 53 53 51 45 49 53 52 42 40 27 30 37 46 39 37 43 38 38 37 36 36 33 36 35 27 37 39 42 42 41 41 41 38 37 38 38 39 38 38 38 39
56 55 53 49 46 43 45 53 53 50 45 33 32 27 24 40 39 39 39 39 31 38 31 33 35 32 28 35 38 38 40 39 39 40 38 37 35 34 34 35 38 37 37 38
55 49 44 40 44 52 52 45 41 40 40 39 34 34 27 35 32 29 33 35 32 29 32 34 31 30 40 41 43 42 41 42 41 34 33 32 29 31 33 35 38 38 38 37
47 42 40 45 52 45 41 36 35 35 33 37 37 38 31 37 32 32 37 32 30 23 27 26 25 24 35 43 43 44 42 42 40 39 36 34 32 33 35 37 38 38 38 36
45 44 45 43 40 36 33 31 33 32 31 34 34 34 41 37 41 36 34 30 31 24 32 24 22 30 39 41 40 40 40 41 40 38 36 34 35 35 38 38 38 38 38 38
45 40 34 34 33 29 28 25 28 28 31 33 34 32 36 37 37 34 33 28 28 32 20 24 28 36 39 38 40 39 40 41 39 37 36 36 35 40 39 38 38 38 37 38
36 31 27 29 28 30 28 28 34 34 33 35 37 33 33 35 32 33 28 30 29 21 18 23 32 36 38 38 39 39 38 39 36 35 36 35 36 39 39 39 39 38 36 38
33 31 27 29 33 33 34 37 36 36 40 38 34 31 32 31 30 31 31 26 19 22 23 32 34 37 39 37 37 37 37 36 35 34 34 35 38 38 38 39 39 38 38 34
33 32 29 33 30 32 35 34 34 36 39 34 32 30 28 27 29 27 25 21 20 27 35 36 37 35 37 36 38 38 37 35 33 34 35 37 38 37 37 39 39 38 38 32
30 30 34 39 37 38 38 41 38 43 38 29 31 27 28 32 28 24 25 24 29 38 36 36 37 37 36 37 38 37 36 34 33 33 35 38 39 39 37 34 36 36 37 33

GFSNW_sfc_temp_030.txt.gz
Temp
58 58 59 59 58 56 57 52 50 61 61 50 41 41 49 54 52 53 52 49 47 44 44 42 41 42 44 48 47 40 40 35 29 36 46 49 43 38 36 26 27 26 19 25
58 58 59 59 57 55 52 50 50 58 60 44 38 43 49 49 49 48 49 46 48 47 43 38 42 42 47 48 45 41 40 32 25 32 39 43 39 41 40 36 27 21 19 30
58 58 58 58 58 57 53 50 48 50 48 44 43 42 42 44 49 48 49 47 48 45 42 44 41 41 46 47 46 52 46 33 31 26 31 34 32 36 37 34 17 26 30 35
58 58 58 58 58 57 54 46 43 45 41 45 43 43 45 43 43 47 47 43 44 42 37 39 39 43 43 45 51 43 39 29 32 35 37 37 36 35 36 32 33 26 33 33
58 58 58 57 57 57 49 47 46 44 42 45 42 44 41 45 45 44 43 42 45 42 38 40 38 40 39 38 41 39 38 29 30 28 35 35 33 36 36 36 36 36 36 35
58 57 57 57 56 54 46 44 46 47 43 42 41 41 43 46 46 45 47 46 42 41 43 42 41 41 41 39 38 36 34 30 25 20 31 30 25 32 35 37 39 37 30 38
57 57 58 57 56 52 46 43 44 45 41 44 45 47 47 46 44 43 46 45 40 44 46 44 41 38 40 39 39 40 32 30 26 19 25 16 35 40 40 38 40 40 40 40
57 57 57 58 56 55 46 44 45 43 40 44 45 46 44 43 42 42 44 45 45 46 42 35 33 33 35 38 39 37 37 31 21 16 16 28 34 38 38 34 35 41 39 40
57 57 57 57 56 55 46 44 44 44 42 42 48 45 44 39 36 38 41 44 44 43 37 33 21 25 30 31 34 39 36 34 27 22 12 12 32 40 44 40 27 40 39 39
58 57 57 57 56 56 47 45 46 44 41 44 46 43 42 44 39 36 38 40 39 40 31 27 23 26 35 26 29 28 27 26 25 23 14 24 37 42 43 24 27 40 39 37
58 57 57 57 57 56 48 46 47 44 39 43 48 51 45 43 40 36 39 38 36 32 28 26 27 23 31 27 31 30 27 21 20 22 16 18 41 40 33 36 38 39 37 37
58 57 57 57 57 56 51 43 49 49 41 44 49 51 51 50 49 42 39 39 37 37 30 28 24 26 23 27 23 33 27 33 25 27 27 39 41 40 42 40 37 37 36 39
57 57 57 56 56 56 51 43 44 43 39 40 42 44 50 52 52 51 40 38 43 40 41 33 28 25 28 22 25 28 36 38 31 32 36 39 42 42 42 40 38 40 39 38
57 57 57 57 56 55 52 43 44 42 40 34 40 51 47 51 50 52 52 48 46 43 40 34 26 25 32 25 30 28 37 36 32 31 38 39 39 39 39 40 40 39 39 38
58 57 57 57 56 55 48 44 45 46 41 34 36 42 47 49 49 49 49 47 42 39 36 31 29 31 30 29 29 25 39 36 29 32 38 36 35 39 40 38 37 37 36 36
57 57 56 56 55 54 47 43 45 47 45 36 28 40 41 44 46 47 47 44 41 40 36 34 35 39 35 25 20 35 42 42 42 38 38 38 39 40 39 36 37 37 36 37
56 56 56 55 54 49 45 44 47 52 48 39 30 29 40 43 43 41 40 42 40 39 36 32 32 34 36 22 26 39 40 41 40 40 36 33 37 35 37 37 37 38 37 38
56 56 55 54 53 50 45 46 51 51 45 42 32 28 32 40 34 33 38 34 37 38 35 34 33 35 34 27 37 40 40 40 39 40 39 37 37 36 35 36 35 34 34 36
55 55 54 51 47 43 45 53 53 47 44 34 32 30 23 37 34 34 34 34 27 34 29 33 32 27 27 35 37 38 38 37 38 38 38 36 35 32 32 31 33 32 36 38
54 48 45 40 44 52 52 45 41 41 41 40 34 33 26 33 28 24 28 26 25 28 31 33 30 29 38 41 42 42 39 41 39 34 33 33 31 30 29 30 34 37 38 37
44 42 41 45 51 45 41 36 35 36 33 37 37 38 30 34 31 33 35 29 31 23 26 27 23 24 33 41 42 44 43 40 38 39 36 35 33 32 32 33 35 36 38 36
43 43 45 44 40 36 33 32 34 32 31 34 35 35 41 36 40 35 34 31 30 22 29 24 22 29 37 38 39 39 39 38 37 37 35 34 34 34 33 33 35 37 38 38
43 40 35 34 33 28 28 24 28 29 31 34 35 32 37 37 38 35 33 29 26 30 25 24 27 36 37 38 38 38 37 38 37 35 35 35 35 36 35 36 38 38 38 38
37 32 26 25 28 28 29 27 28 33 33 34 35 31 34 35 33 33 29 30 29 19 17 21 32 40 37 37 36 36 36 36 35 34 34 34 34 34 36 39 38 38 36 37
33 32 25 24 31 30 30 31 32 36 36 37 34 33 33 31 31 31 29 26 20 21 22 28 37 37 36 35 35 36 35 34 33 33 33 33 34 33 36 39 39 39 37 35
35 32 28 31 29 34 30 31 31 35 37 36 34 31 29 29 29 27 24 21 20 26 31 38 39 35 34 35 38 38 35 34 32 32 33 33 33 33 37 39 38 38 37 35
31 30 34 33 35 37 34 34 34 39 37 32 32 28 27 31 27 23 25 23 28 36 38 40 39 37 36 35 36 35 35 33 31 31 32 33 35 35 37 34 36 37 37 36

GFSNW_sfc_temp_033.txt.gz
Temp
58 58 59 59 58 57 56 51 49 58 58 49 38 41 46 52 49 51 49 47 45 43 42 40 39 40 42 46 45 39 38 34 29 37 43 44 41 36 35 27 27 24 19 24
58 58 59 59 57 56 52 49 49 55 57 44 37 41 46 47 47 46 46 45 46 45 42 37 40 40 45 46 43 39 40 32 26 32 38 40 36 38 37 31 26 20 20 27
58 58 58 58 57 57 52 49 48 50 45 41 41 40 40 42 47 46 47 45 46 43 40 42 39 39 44 45 45 52 45 31 31 28 32 33 32 35 36 32 17 23 28 36
58 58 58 58 57 57 52 44 42 43 41 44 40 40 42 41 41 45 45 42 43 41 37 38 39 40 40 43 49 41 38 30 30 33 35 34 34 35 34 31 30 26 33 31
58 57 57 57 56 56 46 47 45 41 40 42 40 41 39 44 42 43 41 40 43 40 37 39 37 39 38 37 39 38 36 29 29 28 33 33 31 34 34 35 35 34 35 33
58 57 57 56 55 54 45 41 44 47 42 40 40 40 42 45 45 43 45 44 41 38 41 41 39 39 39 38 37 34 33 29 24 19 29 29 27 33 34 33 35 35 29 38
57 57 58 57 55 51 45 41 43 45 41 42 44 45 46 44 43 42 44 43 40 43 45 43 39 36 38 38 38 38 30 29 26 18 24 18 36 38 38 36 38 39 39 39
57 57 57 57 56 54 44 42 43 43 40 42 43 45 43 42 40 40 43 43 43 44 41 34 33 32 32 36 37 35 35 30 21 16 16 27 35 36 35 33 33 40 38 38
57 57 57 57 56 55 45 42 42 42 42 43 47 44 42 39 35 37 40 42 42 42 36 32 22 26 30 31 31 35 34 33 26 21 12 13 33 38 42 39 27 38 38 37
58 57 57 57 56 56 47 44 44 43 41 43 44 42 42 42 37 36 36 39 38 39 31 27 23 26 32 27 29 27 26 25 23 22 14 24 37 40 41 24 28 38 38 36
58 58 57 57 56 56 48 44 45 43 39 42 47 49 44 41 39 36 38 37 35 31 28 26 26 23 30 26 29 29 26 21 20 22 15 18 39 38 33 36 36 38 36 36
57 57 57 57 56 56 50 43 47 47 41 44 46 48 49 49 48 41 37 39 35 36 31 28 25 26 23 27 24 32 28 35 25 28 28 38 39 38 40 39 37 36 35 37
57 57 56 57 56 55 50 42 42 42 39 40 41 43 47 49 50 50 40 37 41 38 40 32 28 25 28 24 25 27 34 39 30 35 36 38 40 41 40 39 38 38 37 36
58 57 57 57 56 55 51 42 43 41 38 34 40 49 45 49 49 49 48 45 43 41 40 37 30 29 36 26 31 28 36 37 35 32 38 39 39 38 40 39 38 37 37 36
56 57 57 56 56 55 47 43 43 44 41 33 36 41 45 46 46 47 46 45 40 36 33 29 27 32 34 32 27 23 37 35 35 35 41 37 35 39 40 38 37 36 34 34
56 56 57 56 55 53 45 39 43 45 43 37 29 39 39 43 44 44 43 42 38 36 34 30 32 36 35 20 20 32 40 46 48 40 38 38 39 39 39 36 36 36 35 35
56 55 55 55 54 50 45 42 44 49 49 39 30 29 39 41 40 39 38 38 35 35 33 30 30 31 33 18 19 39 40 42 42 38 37 34 36 36 37 37 36 37 36 35
56 55 54 54 53 50 46 47 51 50 44 41 28 28 31 37 33 32 35 33 33 33 33 32 30 31 29 21 35 37 39 39 37 38 38 38 36 35 35 35 34 32 32 33
55 53 53 49 48 44 45 53 52 48 44 34 33 30 22 35 31 32 33 32 27 32 30 32 31 27 25 34 38 40 38 37 37 38 37 34 34 33 33 32 32 31 31 33
53 47 44 38 43 51 51 45 41 40 41 39 33 33 30 32 26 25 28 27 24 28 30 34 31 29 37 38 40 42 40 40 38 34 31 30 29 30 30 31 32 33 33 33
42 41 40 45 51 45 41 36 34 35 33 36 37 37 35 34 32 31 32 31 32 25 25 27 27 26 30 40 41 43 42 38 39 40 37 36 34 32 31 31 33 34 33 33
43 44 46 45 41 36 33 32 34 33 32 34 34 35 39 37 39 35 34 31 30 24 27 28 24 29 36 40 38 39 38 37 37 36 35 34 34 33 32 31 32 33 34 37
44 41 36 35 34 27 28 25 28 28 34 31 34 32 36 36 36 35 33 29 27 29 26 25 28 32 40 38 38 39 37 36 35 34 34 34 33 34 33 33 34 34 37 38
38 33 29 28 24 29 28 26 27 31 30 31 33 32 33 35 32 33 31 31 29 21 21 22 29 36 37 39 40 37 35 34 33 33 33 33 32 32 34 34 35 37 36 38
34 32 26 24 29 28 29 30 30 31 33 34 32 34 34 31 31 32 31 25 20 22 22 28 36 38 39 38 38 36 33 32 32 32 32 32 32 32 32 34 35 38 38 37
34 32 29 29 26 30 27 28 29 32 33 32 32 28 28 27 30 27 23 20 19 25 30 35 39 38 42 42 40 35 34 32 32 31 32 32 31 31 32 34 35 38 37 35
31 31 34 31 29 31 28 30 31 35 33 28 32 28 27 30 24 26 28 23 28 34 36 39 40 41 44 44 37 35 34 33 32 31 31 32 33 33 32 30 33 37 37 36